Weather History for Flagstaff, AZ

Change the Weather History Date:

Tuesday, March 19, 2013

  Actual Average Record
Temperature  
Mean Temperature 43 °F 38 °F  
Max Temperature 57 °F 51 °F 71 °F (1907)
Min Temperature 28 °F 24 °F 1 °F (1963)
Degree Days  
Heating Degree Days 22 27  
Month to date heating degree days 491 551  
Since 1 July heating degree days 5359 5390  
Cooling Degree Days 0 0  
Month to date cooling degree days 0 0  
Year to date cooling degree days 0 0  
Moisture  
Dew Point 21 °F    
Average Humidity 46    
Maximum Humidity 70    
Minimum Humidity 21    
Precipitation  
Precipitation 0.00 in 0.07 in 1.58 in (1994)
Month to date precipitation 1.38 1.40  
Year to date precipitation 4.88 5.61  
Snow  
Snow 0.00 in 0.70 in 9.00 in (1980)
Month to date snowfall 15.2 14.1  
Since 1 July snowfall 68.3 87.3  
Snow Depth 0.00 in    
Sea Level Pressure  
Sea Level Pressure 30.02 in    
Wind  
Wind Speed 3 mph (East)    
Max Wind Speed 14 mph    
Max Gust Speed 18 mph    
Visibility 10 miles    
Events      
T = Trace of Precipitation, MM = Missing Value Source: NWS Daily Summary

Daily Weather History Graph

Daily Weather History Graph

Search for Another Location

Airport:

Trip Planner

Search our weather history database for the weather conditions in past years. The results will help you decide how hot, cold, wet, or windy it might be!

Date:

Astronomy

Mar. 19, 2013 Rise Set
Actual Time 6:31 AM MST 6:37 PM MST
Civil Twilight 6:06 AM MST 7:03 PM MST
Nautical Twilight 5:36 AM MST 7:32 PM MST
Astronomical Twilight 5:06 AM MST 8:02 PM MST
Moon 11:36 AM MST (3/19) 1:15 AM MST (3/19)
Length of Visible Light 12h 57m
Length of Day
12h 06m
Waxing Crescent, 51% of the Moon is Illuminated
Mar 19
Waxing Crescent
Mar 27
Full
Apr 2
Last Quarter
Apr 10
New
Apr 18
First Quarter

Hourly Weather History & Observations

Time (MST) Temp. Windchill Dew Point Humidity Pressure Visibility Wind Dir Wind Speed Gust Speed Precip Events Conditions
12:57 AM 30.9 °F - 21.9 °F 69% 29.97 in 10.0 mi Calm Calm - N/A   Clear
1:57 AM 30.9 °F - 21.0 °F 67% 29.97 in 10.0 mi Calm Calm - N/A   Clear
2:57 AM 32.0 °F - 23.0 °F 69% 29.94 in 10.0 mi Calm Calm - N/A   Mostly Cloudy
3:57 AM 32.0 °F - 23.0 °F 69% 29.92 in 10.0 mi Calm Calm - N/A   Scattered Clouds
4:57 AM 34.0 °F - 24.1 °F 67% 29.92 in 10.0 mi Calm Calm - N/A   Overcast
5:57 AM 34.0 °F - 25.0 °F 70% 29.95 in 10.0 mi Calm Calm - N/A   Overcast
6:57 AM 35.1 °F - 27.0 °F 72% 29.97 in 10.0 mi Calm Calm - N/A   Overcast
7:26 AM 35.6 °F - 26.6 °F 70% 30.13 in 10.0 mi Calm Calm - N/A   Overcast
7:57 AM 37.0 °F - 28.0 °F 70% 30.01 in 10.0 mi Calm Calm - N/A   Overcast
8:57 AM 45.0 °F - 28.9 °F 53% 30.00 in 10.0 mi Calm Calm - N/A   Mostly Cloudy
9:57 AM 48.9 °F - 19.0 °F 31% 29.99 in 10.0 mi Calm Calm - N/A   Overcast
10:57 AM 52.0 °F - 19.0 °F 27% 30.01 in 10.0 mi ESE 8.1 mph - N/A   Overcast
11:57 AM 55.0 °F - 19.0 °F 24% 30.02 in 10.0 mi SSW 10.4 mph - N/A   Overcast
12:57 PM 54.0 °F - 18.0 °F 24% 30.03 in 10.0 mi East 10.4 mph - N/A   Overcast
1:57 PM 53.1 °F - 21.0 °F 29% 30.02 in 10.0 mi ENE 12.7 mph - N/A   Overcast
2:57 PM 55.0 °F - 19.9 °F 25% 30.01 in 10.0 mi ENE 6.9 mph - N/A   Overcast
3:57 PM 55.9 °F - 19.0 °F 24% 30.01 in 10.0 mi Variable 3.5 mph - N/A   Scattered Clouds
4:57 PM 57.0 °F - 17.1 °F 21% 30.00 in 10.0 mi Calm Calm - N/A   Clear
5:57 PM 53.1 °F - 18.0 °F 25% 30.03 in 10.0 mi ESE 8.1 mph - N/A   Partly Cloudy
6:57 PM 48.0 °F - 18.0 °F 30% 30.06 in 10.0 mi ENE 8.1 mph - N/A   Clear
7:57 PM 46.0 °F 43.1 °F 19.0 °F 34% 30.08 in 10.0 mi East 5.8 mph - N/A   Clear
8:57 PM 37.9 °F - 19.9 °F 48% 30.11 in 10.0 mi Calm Calm - N/A   Clear
9:57 PM 33.1 °F - 19.0 °F 56% 30.13 in 10.0 mi Calm Calm - N/A   Clear
10:57 PM 30.9 °F - 19.0 °F 61% 30.14 in 10.0 mi Calm Calm - N/A   Clear
11:57 PM 28.9 °F - 19.0 °F 67% 30.14 in 10.0 mi Calm Calm - N/A   Clear